Regional Weather Roundup
Issued by NWS

Home | Current Version | Previous Version | Text Only | Print | Product List | Glossary On
Versions: 1 2 3 4 5 6 7 8 9 10 11 12 13 14 15 16 17 18 19 20 21 22 23 24 25 26 27 28 29 30 31 32 33 34 35 36 37 38 39 40 41 42 43 44 45 46 47 48 49 50
000
ASUS45 KTFX 182210
RWRMT
MONTANA REGIONAL WEATHER ROUNDUP
NATIONAL WEATHER SERVICE GREAT FALLS MT
300 PM MST WED JAN 18 2017

NOTE: "FAIR" INDICATES FEW OR NO CLOUDS BELOW 12000 FEET WITH NO
SIGNIFICANT WEATHER AND/OR OBSTRUCTIONS TO VISIBILITY.

MTZ001>007-043-182300-
WEST OF THE DIVIDE

CITY           SKY/WX    TMP DP  RH WIND       PRES   REMARKS
KALISPELL      LGT SNOW  29  26  89 E3        29.60F
MISSOULA       PTSUNNY   28  23  81 SW9       29.63F WCI  19
BUTTE          CLOUDY    40  23  50 SE5       29.69F
MULLAN PASS    FOG       32  29  88 VRB5      29.61R VSB 1/4
ANACONDA         N/A     45  25  45 S13G18    29.67F
DEER LODGE       N/A     43  27  52 S9        29.68F
EUREKA           N/A     37  34  87 S13       29.56F WCI  29
HAMILTON         N/A     48  28  46 SE12      29.63F
PLAINS           N/A     32  24  72 CALM      29.67S
RONAN            N/A     29  25  85 NW5       29.65F
$$

MTZ008-052>055-182300-
SOUTHWEST MONTANA

CITY           SKY/WX    TMP DP  RH WIND       PRES   REMARKS
BOZEMAN        CLOUDY    32  24  72 E3        29.73F
DILLON         CLOUDY    47  19  33 VRB5      29.74F
W YELLOWSTONE  CLOUDY    19  12  73 E3        29.92F
ENNIS          CLOUDY    34  19  55 S20G26    29.82F WCI  22
TWIN BRIDGES     N/A     34  17  50 SE9       29.78F WCI  27
$$

MTZ009-010-012-014-046-048-049-054-182300-
EAST SLOPES AND CENTRAL MONTANA

CITY           SKY/WX    TMP DP  RH WIND       PRES   REMARKS
CUT BANK       MOSUNNY   49  33  54 SW17      29.46F
GREAT FALLS    SUNNY     47  28  47 SW24G32   29.55F
HELENA         CLOUDY    33  21  61 CALM      29.67F
AUGUSTA          N/A     44  33  64 S21       29.50F
BOWMANS CRNR     N/A     40  26  58 S14       29.56S
CHOTEAU          N/A     50  34  53 SW13      29.50F
CONRAD           N/A     46  38  74 S3        29.56F
POWER            N/A     42  30  62 SW20      29.53S
RAYNESFORD       N/A     54  25  32 SW22G29   29.58R
ULM              N/A     44  29  56 MISG      29.58R
$$

MTZ011-013-016-021-045-047-050-051-182300-
NORTH CENTRAL MONTANA

CITY           SKY/WX    TMP DP  RH WIND       PRES   REMARKS
HAVRE          CLOUDY    45  31  58 VRB5      29.49F
LEWISTOWN      CLOUDY    44  28  53 SW16      29.58R
N BAR RANCH      N/A     55  25  30 W14G22    29.58R
CHINOOK          N/A     52  30  43 W17       29.46S
DENTON         PTSUNNY   47  28  48 SW10G20   29.53R
FORT BENTON      N/A     55  28  35 MISG      29.54S
GEYSER         PTSUNNY   53  29  40 W28G41    29.53S
GRASS RANGE    PTSUNNY   50  27  40 W10       29.53R
JUDITH GAP     PTSUNNY   44  23  44 SW26G36   29.61F
STANFORD         N/A     49  28  44 E5        29.57R
WINIFRED         N/A     48  28  45 NW6       29.55R
$$

MTZ017>020-022>027-061-062-182300-
NORTHEAST MONTANA

CITY           SKY/WX    TMP DP  RH WIND       PRES   REMARKS
GLASGOW          N/A    N/A N/A N/A MISG        N/A
JORDAN           N/A     44  29  55 W7        29.54R
SIDNEY         SUNNY     37  27  67 S17       29.57F WCI  27
WOLF POINT     SUNNY     37  27  67 E5        29.54S
PLENTYWOOD       N/A     36  28  75 SE9       29.53S WCI  29
POPLAR           N/A     43  28  56 S5        29.56R
SCOBEY           N/A     37  25  62 CALM      29.53R
$$

MTZ028>42-056>058-182300-
SOUTHCENTRAL AND SOUTHEAST MONTANA

CITY           SKY/WX    TMP DP  RH WIND       PRES   REMARKS
BAKER          CLOUDY    34  26  72 E6        29.62S WCI  29
BILLINGS       CLOUDY    42  22  44 SW24      29.63F
LIVINGSTON     CLOUDY    48  15  26 SW32G51   29.67S
MILES CITY     SUNNY     34  23  64 S7        29.61R WCI  28
BIG TIMBER     SUNNY     50  16  25 W24       29.68R
EKALAKA          N/A     39  24  55 SE9       29.64S
FORSYTH          N/A     39  25  56 CALM      29.60F
LAUREL           N/A     40  21  46 S10       29.67F
$$

REGIONAL REPORTS...DAKOTAS

CITY           SKY/WX    TMP DP  RH WIND       PRES   REMARKS
WILLISTON      CLOUDY    37  27  67 SW7       29.57S WCI  32
MINOT          CLEAR     43  29  57 S7        29.54F
DICKINSON      SUNNY     39  25  57 S16       29.58S WCI  30
BEACH            N/A     34  30  86 S9        29.63S WCI  26
CROSBY           N/A     36  28  75 SW23      29.53S WCI  24
TIOGA            N/A     37  30  75 SW18      29.56F WCI  27
WATFORD CITY     N/A     39  28  65 SW8       29.58S
BISMARCK       CLOUDY    30  24  78 E3        29.66S
GRAND FORKS    CLOUDY    32  24  72 S9        29.67S WCI  24
FARGO          CLEAR     36  27  69 S12       29.71S WCI  28
BUFFALO SD       N/A     40  26  57 W6        29.58S
RAPID CITY     CLOUDY    38  27  64 CALM      29.64F
$$

REGIONAL REPORTS...WYOMING/IDAHO/WASHINGTON

CITY           SKY/WX    TMP DP  RH WIND       PRES   REMARKS
GILLETTE       SUNNY     49  23  36 SW7       29.65F
SHERIDAN       CLOUDY    36  23  59 VRB5      29.61F
BUFFALO WY     CLOUDY    46  26  45 W3        29.65F
CODY           CLOUDY    30  18  60 CALM      29.73F
YELLOWSTONE LA   N/A     21  12  68 CALM      29.92F
IDAHO FALLS    CLOUDY    17  12  80 N7        29.94F WCI   8
SALMON         CLOUDY    10   5  79 CALM      29.88F
BOISE          LGT SNOW  27  24  89 VRB6      29.87F FOG     WCI  20
SPOKANE        CLOUDY    40  33  76 E7        29.56S
$$

REGIONAL REPORTS...ALBERTA

CITY           SKY/WX    TMP DP  RH WIND       PRES   REMARKS
EDMONTON       PTSUNNY   43  27  52 W5        29.17S
CALGARY        MOSUNNY   43  28  56 E8        29.25F
LETHBRIDGE     MOSUNNY   46  34  61 SW16      29.38F
MEDICINE HAT   PTSUNNY   46  36  66 SW17G25   29.40R
WATERTON GATE    N/A     45  30  57 SW21G29     N/A
CARDSTON         N/A     52  30  43 SW12G21     N/A
MILK RIVER       N/A     46  36  66 SW21G28     N/A
ONEFOUR          N/A     39  30  70 N5          N/A
$$

REGIONAL REPORTS...SASKATCHEWAN

CITY           SKY/WX    TMP DP  RH WIND       PRES   REMARKS
SWIFT CURRENT  CLOUDY    41  32  70 SW17      29.38R
REGINA         MOCLDY    39  30  70 S9        29.44R
SASKATOON      MOCLDY    43  32  65 SW16      29.29S
CYPRESS HILLS    N/A     43  30  61 SW17G23     N/A
VAL MARIE        N/A     41  30  65 W7          N/A
ROCKGLEN         N/A     43  28  56 SW14        N/A
ASSINIBOIA       N/A     41  30  65 SW9         N/A
$$



USA.gov is the U.S. government's official web portal to all federal, state and local government web resources and services.